Location: Pl�tzky
(52.0521°N, 11.8020°E)
Time: 15:58:10
(UTC+00:00)

COSMOS 2455 - Pass Details

Date: 22 November 2019
Orbit: 902 x 908 km, 67.1° (Epoch: 12 December)

Event Time Altitude Azimuth Distance (km) Brightness Sun altitude
Rises 18:17:51 0° 204° (SSW) 3,522 6.2 -27.8°
Reaches altitude 10° 18:20:21 10° 202° (SSW) 2,585 5.4 -28.2°
Enters shadow 18:24:33 45° 182° (S) 1,216 3.4 -28.9°
